[[{"header":{"parameterUnit":"m.s-1","parameterCategory":1,"la1":30.2991,"la2":30.254,"lo1":-89.0895,"lo2":-89.0444,"dy":0.0017,"dx":0.0017,"nx":28,"ny":28,"refTime":"2026-01-05T03:00:00:Z","depth":0,"parameterNumber":2,"parameterNumberName":"U-component_of_WINDS"},"data":[0,0,0,0,0,0,0,0,0,0,0,0,0,0,0,0,0,0,0,0,0,0,0,0,0,0,0,0,0,0,0,0,0,0,0,0,0,0,0,0,0,0,0,0,0,0,0,0,0,0,0,0,0,0,0,0,0,0,0.8817,0.8817,0,0.879,0.879,0.879,0.8768,0.8768,0.8768,0.8767,0.8738,0.8738,0.8737,0,0,0,0,0,0,0,0,0,0,0,0,0,0.8848,0.8848,0.8817,0.8817,0.8817,0.8791,0.879,0.879,0.8768,0.8768,0.8768,0.8767,0.8739,0.8738,0.8737,0,0,0,0,0,0,0,0,0,0,0,0,0,0.883,0.8848,0.8817,0.8803,0.8801,0.8791,0.879,0.879,0.8768,0.8768,0.8768,0.8767,0.8739,0.8738,0.8737,0.8738,0,0,0.8734,0.8734,0,0,0,0,0,0,0,0,0.8831,0.8828,0.8805,0.8804,0.8802,0.8782,0.879,0.8772,0.8768,0.8781,0.8767,0.8767,0.8753,0.8751,0.8747,0.8737,0.8736,0.8734,0.8734,0.8734,0.8733,0,0,0,0,0,0,0,0.8832,0.8829,0.8807,0.8805,0.8803,0.8797,0.8794,0.8787,0.8769,0.878,0.8778,0.8775,0.8752,0.8748,0.8746,0.8735,0.8734,0.8734,0.8733,0.8733,0.8726,0.8726,0,0,0,0,0,0,0.8836,0.8831,0.8807,0.8806,0.8816,0.8797,0.8793,0.8789,0.8769,0.8766,0.8775,0.8774,0.8749,0.8747,0.8745,0.8745,0.8734,0.8733,0.8732,0.8725,0.8726,0.8726,0,0,0,0,0,0,0.8836,0.8834,0.8809,0.8818,0.8814,0.8797,0.8792,0.8789,0.8784,0.8766,0.8762,0.8774,0.8749,0.8746,0.874,0.8744,0.8732,0.8732,0.8725,0.8725,0.8726,0.8746,0,0,0,0,0,0,0.8837,0.8834,0.8835,0.8818,0.8814,0.8805,0.8792,0.8788,0.8783,0.8781,0.8764,0.8761,0.8748,0.8742,0.874,0.8743,0.8731,0.8725,0.8725,0.8726,0.8745,0.8747,0.8749,0,0,0,0,0,0.8839,0.8841,0.8835,0.8832,0.8814,0.8805,0.8803,0.8789,0.8783,0.8783,0.8772,0.8761,0.8744,0.8741,0.8739,0.8742,0.8724,0.8725,0.8726,0.8744,0.8747,0.8749,0,0,0,0,0,0,0.8859,0.8839,0.8832,0.8829,0.8819,0.8802,0.8802,0.8792,0.8783,0.8782,0.8765,0.8761,0.8757,0.8749,0.8746,0.8742,0.8733,0.8733,0.8748,0.875,0.8752,0.8754,0.873,0,0,0,0,0,0.8863,0.8858,0.884,0.884,0.8835,0.8819,0.8815,0.8805,0.8794,0.879,0.8778,0.8767,0.8759,0.8754,0.8746,0.8744,0.874,0.8744,0.8746,0.8748,0.8749,0.8747,0.8749,0.8728,0.8728,0.8728,0,0,0.8871,0.886,0.8857,0.8843,0.8835,0.8829,0.8816,0.8811,0.8807,0.8789,0.8783,0.8774,0.876,0.8757,0.8755,0.8749,0.8754,0.8749,0.8751,0.875,0.8748,0.875,0.8752,0.8729,0.8729,0.8729,0,0,0.8884,0.8875,0.8873,0.8865,0.8852,0.8841,0.8841,0.8825,0.8819,0.8813,0.8799,0.8794,0.878,0.8771,0.8765,0.8775,0.8765,0.8773,0.8783,0.8782,0.8784,0.8785,0.8789,0.8791,0.8773,0.8773,0.8773,0,0.8896,0.8888,0.8874,0.887,0.8864,0.8848,0.8846,0.8838,0.8823,0.882,0.8814,0.8797,0.8787,0.8782,0.8784,0.8779,0.8778,0.8775,0.8785,0.8786,0.8787,0.8791,0.8792,0.8774,0.8774,0.8774,0.8774,0,0.8903,0.8898,0.8898,0.8885,0.8879,0.8876,0.8861,0.8857,0.8848,0.8838,0.8832,0.8819,0.8808,0.8806,0.8797,0.8799,0.8797,0.8788,0.8779,0.8791,0.8793,0.8795,0.8776,0.8775,0.8775,0.8775,0,0,0.8928,0.8907,0.8907,0.8901,0.8886,0.8881,0.8877,0.8867,0.8864,0.8854,0.8851,0.884,0.8832,0.8825,0.8815,0.8814,0.8823,0.8806,0.8805,0.8809,0.8825,0.8831,0.8833,0.8816,0.8816,0.8816,0.8826,0,0.8939,0.8932,0.8919,0.8916,0.8911,0.8896,0.8893,0.8883,0.8873,0.8867,0.8856,0.8849,0.8839,0.8835,0.8834,0.8822,0.8826,0.8821,0.8812,0.8812,0.8817,0.8835,0.8841,0.8851,0.8827,0.8827,0.8827,0,0.895,0.8942,0.8939,0.8924,0.8921,0.8919,0.8909,0.8903,0.8891,0.8884,0.8877,0.8866,0.8861,0.8852,0.8845,0.8842,0.8837,0.8831,0.8831,0.883,0.8821,0.8834,0.8854,0.8856,0.8829,0.8829,0.8829,0,0.8969,0.8957,0.8953,0.8948,0.8931,0.893,0.8922,0.891,0.8905,0.8896,0.8892,0.8883,0.8877,0.887,0.8856,0.8851,0.885,0.884,0.8845,0.8845,0.8845,0.8846,0.8865,0.8842,0.8842,0.8842,0.8842,0,0.8982,0.8981,0.8962,0.896,0.8958,0.8943,0.8941,0.8932,0.8922,0.8918,0.8903,0.8899,0.8881,0.8875,0.8864,0.886,0.8858,0.8852,0.8849,0.8854,0.8854,0.8851,0.885,0.8842,0.8842,0.8842,0.8842,0,0.9003,0.899,0.8985,0.897,0.8966,0.8965,0.8951,0.8948,0.8938,0.8933,0.8931,0.8915,0.8907,0.8892,0.888,0.8873,0.8871,0.8866,0.8875,0.8874,0.8879,0.8879,0.8897,0.8899,0.8874,0.8875,0.8875,0,0.9012,0.9011,0.8996,0.8992,0.8985,0.898,0.8975,0.896,0.8955,0.8942,0.894,0.8932,0.8924,0.8912,0.8899,0.889,0.8884,0.8891,0.8883,0.8887,0.8885,0.8885,0.8885,0.8894,0.8894,0.8894,0.8894,0,0.9031,0.9025,0.9018,0.9009,0.9004,0.8996,0.8988,0.8985,0.8968,0.8964,0.8956,0.895,0.8938,0.8929,0.8918,0.891,0.89,0.8897,0.8898,0.8902,0.8908,0.8905,0.8881,0.8897,0.8897,0.8896,0.8896,0.8896,0.9046,0.9045,0.9034,0.9027,0.9019,0.9012,0.9008,0.8998,0.8992,0.8981,0.8973,0.8966,0.8954,0.8938,0.893,0.8925,0.8919,0.892,0.892,0.8921,0.8923,0.8909,0.8922,0.8922,0.8922,0.8922,0.8922,0,0.9064,0.9057,0.9051,0.904,0.9034,0.9025,0.9015,0.9011,0.9006,0.8996,0.8989,0.898,0.8972,0.8958,0.8949,0.8946,0.8941,0.8945,0.8945,0.8943,0.8928,0.8928,0.8949,0.8949,0.8949,0.8949,0.8949,0.8949,0.9073,0.907,0.9063,0.9056,0.9048,0.9041,0.9036,0.9029,0.9021,0.9013,0.9006,0.8997,0.8986,0.8976,0.8968,0.8964,0.8961,0.8966,0.8961,0.8947,0.8944,0.8942,0.8942,0.8965,0.8965,0.8976,0.8976,0.8977]},{"header":{"parameterUnit":"m.s-1","parameterCategory":1,"la1":30.2991,"la2":30.254,"lo1":-89.0895,"lo2":-89.0444,"dy":0.0017,"dx":0.0017,"nx":28,"ny":28,"refTime":"2026-01-05T03:00:00:Z","depth":0,"parameterNumber":3,"parameterNumberName":"V-component_of_WINDS"},"data":[0,0,0,0,0,0,0,0,0,0,0,0,0,0,0,0,0,0,0,0,0,0,0,0,0,0,0,0,0,0,0,0,0,0,0,0,0,0,0,0,0,0,0,0,0,0,0,0,0,0,0,0,0,0,0,0,0,0,2.5242,2.5244,0,2.5426,2.5428,2.543,2.5495,2.5495,2.5494,2.5493,2.5683,2.5689,2.5694,0,0,0,0,0,0,0,0,0,0,0,0,0,2.4947,2.4952,2.5241,2.5244,2.5246,2.5426,2.5428,2.5431,2.5496,2.5495,2.5494,2.5493,2.5681,2.5688,2.5695,0,0,0,0,0,0,0,0,0,0,0,0,0,2.5097,2.4953,2.5241,2.53,2.5307,2.5425,2.5428,2.5431,2.5496,2.5495,2.5494,2.5493,2.5679,2.5688,2.5696,2.5769,0,0,2.5722,2.5726,0,0,0,0,0,0,0,0,2.5089,2.5108,2.5289,2.5296,2.5304,2.5437,2.5394,2.5545,2.5496,2.5424,2.5493,2.5492,2.5602,2.5617,2.5654,2.5778,2.5786,2.5723,2.5728,2.5732,2.5734,0,0,0,0,0,0,0,2.5078,2.51,2.5315,2.5292,2.5301,2.5318,2.5338,2.5423,2.5517,2.543,2.5436,2.5456,2.5606,2.5645,2.5659,2.5789,2.5723,2.573,2.5735,2.5739,2.5983,2.5985,0,0,0,0,0,0,2.5058,2.5091,2.5309,2.532,2.5192,2.5324,2.5347,2.5395,2.5516,2.5533,2.5457,2.5459,2.5631,2.5649,2.5666,2.5761,2.5732,2.574,2.5744,2.5982,2.5984,2.5985,0,0,0,0,0,0,2.5051,2.5076,2.5301,2.5207,2.5237,2.533,2.5384,2.5399,2.5439,2.5536,2.5553,2.548,2.5631,2.5654,2.5743,2.5768,2.5743,2.5751,2.598,2.5982,2.5984,2.595,0,0,0,0,0,0,2.5042,2.5074,2.5102,2.5207,2.5242,2.5375,2.5386,2.5404,2.5453,2.5457,2.5562,2.5579,2.5632,2.573,2.5751,2.5779,2.5758,2.5979,2.5981,2.5984,2.5949,2.5951,2.5952,0,0,0,0,0,2.5032,2.5085,2.5103,2.5129,2.5279,2.5377,2.5396,2.5457,2.5455,2.5485,2.5547,2.5575,2.5761,2.5739,2.5763,2.5794,2.5977,2.598,2.5983,2.5949,2.595,2.5952,0,0,0,0,0,0,2.4981,2.51,2.5122,2.5211,2.5283,2.5387,2.5427,2.5456,2.5531,2.5532,2.5603,2.5626,2.571,2.5761,2.5734,2.5872,2.5871,2.5879,2.5836,2.5838,2.584,2.5827,2.5765,0,0,0,0,0,2.498,2.5049,2.5149,2.5218,2.5253,2.5333,2.5378,2.5418,2.5496,2.5527,2.5596,2.5671,2.5747,2.5795,2.587,2.5956,2.5981,2.5989,2.599,2.5991,2.5998,2.6049,2.6055,2.5995,2.5995,2.5995,0,0,2.498,2.5053,2.5092,2.521,2.5271,2.5341,2.5359,2.5432,2.5485,2.5538,2.5628,2.568,2.5769,2.5857,2.59,2.5902,2.6019,2.5995,2.5995,2.6002,2.6053,2.6058,2.6063,2.5997,2.5997,2.5997,0,0,2.5015,2.5076,2.5141,2.5201,2.5293,2.5346,2.5361,2.5461,2.5499,2.5589,2.5631,2.5694,2.5822,2.5884,2.5932,2.5989,2.6019,2.6011,2.6019,2.6067,2.6072,2.6077,2.6099,2.6106,2.6017,2.6017,2.6017,0,2.5003,2.511,2.5171,2.5242,2.5293,2.5344,2.5411,2.5466,2.5577,2.5612,2.5612,2.5775,2.5837,2.5942,2.5956,2.5992,2.6013,2.6001,2.6066,2.6071,2.6077,2.6099,2.6107,2.6016,2.6016,2.6016,2.6017,0,2.5091,2.5164,2.5206,2.5312,2.5367,2.5436,2.5508,2.5557,2.5591,2.5644,2.5736,2.5813,2.5904,2.5931,2.5966,2.6041,2.604,2.6052,2.6053,2.608,2.6102,2.6111,2.6014,2.6015,2.6015,2.6015,0,0,2.5102,2.524,2.5254,2.5304,2.5408,2.5466,2.5536,2.5626,2.5667,2.5741,2.5804,2.591,2.5923,2.5977,2.6019,2.6061,2.6103,2.6069,2.6072,2.6074,2.6193,2.6184,2.6193,2.6122,2.6124,2.6125,2.6186,0,2.5152,2.5281,2.5338,2.5441,2.5511,2.5559,2.5621,2.5691,2.5742,2.5809,2.5865,2.594,2.595,2.5983,2.6027,2.6089,2.6129,2.6085,2.6182,2.6185,2.6161,2.6204,2.6196,2.625,2.6195,2.6196,2.6197,0,2.5229,2.5303,2.5413,2.551,2.5541,2.5595,2.5682,2.5745,2.5826,2.586,2.592,2.596,2.6037,2.603,2.6138,2.6107,2.6149,2.6186,2.6189,2.6203,2.6194,2.6221,2.6268,2.6277,2.6211,2.621,2.6209,0,2.5228,2.5356,2.5439,2.5479,2.5592,2.563,2.5679,2.5759,2.5809,2.5885,2.5918,2.6001,2.6048,2.6111,2.6173,2.6162,2.6275,2.6273,2.6306,2.6305,2.633,2.6328,2.6387,2.6353,2.6353,2.6353,2.6353,0,2.528,2.5346,2.544,2.5491,2.5567,2.5631,2.5704,2.5757,2.5827,2.589,2.5936,2.5994,2.607,2.6138,2.6186,2.6269,2.6288,2.6319,2.6332,2.6317,2.6313,2.6348,2.6346,2.6355,2.6355,2.6354,2.6354,0,2.5293,2.5358,2.5452,2.5552,2.5578,2.563,2.5716,2.5767,2.5819,2.5898,2.5921,2.6003,2.6085,2.6152,2.6259,2.6291,2.6379,2.6391,2.6351,2.6358,2.6389,2.6386,2.6474,2.649,2.6442,2.6443,2.6443,0,2.5323,2.5375,2.548,2.5525,2.5574,2.5646,2.5697,2.5762,2.5814,2.591,2.595,2.6035,2.6107,2.6236,2.6306,2.6388,2.6405,2.643,2.6418,2.6402,2.6409,2.6406,2.6412,2.6432,2.6432,2.6433,2.6433,0,2.537,2.54,2.5472,2.5555,2.5615,2.5684,2.5754,2.5788,2.5866,2.5922,2.6006,2.6062,2.6171,2.6256,2.6346,2.6397,2.6429,2.6435,2.6448,2.6435,2.641,2.6426,2.6357,2.6434,2.6434,2.6434,2.6434,2.6434,2.5395,2.5444,2.5525,2.5604,2.5663,2.5728,2.5782,2.584,2.5912,2.6006,2.6039,2.6126,2.6206,2.633,2.6382,2.6451,2.6454,2.6472,2.6477,2.6481,2.648,2.6396,2.6467,2.6467,2.6467,2.6467,2.6467,0,2.5446,2.5501,2.5573,2.5669,2.5731,2.5754,2.5832,2.5883,2.5959,2.6031,2.61,2.6197,2.6279,2.6355,2.6441,2.6482,2.6499,2.6502,2.6502,2.6513,2.6471,2.6453,2.6488,2.6488,2.6488,2.6488,2.6488,2.6488,2.5481,2.5565,2.5604,2.5718,2.5773,2.5858,2.5901,2.5961,2.6019,2.6125,2.6194,2.6242,2.6316,2.6407,2.6484,2.6504,2.6534,2.6535,2.6559,2.6519,2.6516,2.6513,2.6497,2.654,2.654,2.6596,2.6596,2.6597]}]]